User: anonymous   Login
Location: Unspecified
(0.0000°N, 0.0000°E)
Time: 09:39:34
(UTC+01:00)
Language:

Cosmos 1933 - Orbit

View from above orbital plane
View from above orbital plane
View from above satellite
View from above satellite

Ground track
Ground track

The orbit data is extracted from the following two-line orbital elements,

1 18958U 88020A   17018.76162985  .00000357  00000-0  24326-4 0  9996
2 18958  82.5283 248.0128 0013217  72.6728 287.5943 15.03126226569086
Epoch (UTC): 18 January 2017 18:16:44
Eccentricity: 0.0013217
inclination: 82.5283°
perigee height: 548 km
apogee height: 566 km
right ascension of ascending node: 248.0128°
argument of perigee: 72.6728°
revolutions per day: 15.03126226
mean anomaly at epoch: 287.5943°
orbit number at epoch: 56908

The dashed part of the orbit path shows where the satellite is in the earth's shadow,  

DLR